Погода в Тасинском Боре

Россия / Владимирская область     55°37′02″N   40°09′23″E
темп.,
°C
ветер,
м/с
пор.,
м/с
влажн.,
%
обл.,
%
осадки,
мм/ч
давл.,
гПа
погр.,
м
25 июля, вс
вс2500:00+14с1155100 0.0 101810
03:00+14сз225799 0.0 101942
06:00+14ссз116686 0.0 102054
09:00+20зюз12457 0.0 1020603
12:00+21зсз233283 0.0 10212346
15:00+20з354187 0.0 1021969
18:00+21з3544100 0.0 10211515
21:00+15зсз1160100 0.0 102111
26 июля, пн
пн2600:00+14зюз116554 0.0 102210
03:00+16юз1161100 0.0 102316
06:00+16ююз2264100 0.0 102342
09:00+20юз2351100 0.0 1023372
12:00+24зсз233846 0.0 10231287
15:00+23зсз344193 0.0 1022876
18:00+24з34415 0.0 10211228
21:00+18зюз22579 0.0 102228
27 июля, вт
вт2700:00+17юз235739 0.0 102246
03:00+16зюз22735 0.0 102234
06:00+16зсз13755 0.0 102285
09:00+23ссз22484 0.0 1021595
12:00+27сз23336 0.0 10202448
15:00+27ссз233562 0.0 10201963
18:00+26ссв12410 0.0 1018395
21:00+19ююз22570 0.0 101813
28 июля, ср
ср2800:00+17св11671 0.0 101816
03:00+15ююз11755 0.0 101811
06:00+17зсз12770 0.0 101778
09:00+24зюз235184 0.0 1016638
12:00+28зюз2439100 0.0 10152192
15:00+26зюз2651100 0.0 1013371
18:00+25ююз2557100 0.1 1012170
21:00+18зюз2697100 1.9 1012227
29 июля, чт
чт2900:00+17вюв3897100 1.5 1010248
03:00+17юв3996100 2.1 1007346
06:00+17ю2598100 2.4 1006324
09:00+19з3794100 2.4 1005530
12:00+19з3988100 0.3 1006726
15:00+19зсз41190100 1.0 1006683
18:00+23зсз412724 0.6 10051337
21:00+18зсз22900 0.7 100616